This is the latest recevied weather packets stored in our database for station/object WP4PW. If no packets are shown the sender has not sent any weather packets the latest 10 day(s).
| Time | Temp. | Humidity | Pressure | Rain* | Wind** | Luminosity | Snow |
|---|---|---|---|---|---|---|---|
| 1777669750 | 28.33° C | 84% | 1017.7 hPa | 0 mm | - | 52 W/m² | - |
| 1777669447 | 28.33° C | 83% | 1017.7 hPa | 0 mm | - | 56 W/m² | - |
| 1777669143 | 28.33° C | 83% | 1017.8 hPa | 0 mm | - | 58 W/m² | - |
| 1777668840 | 28.33° C | 83% | 1017.8 hPa | 0 mm | - | 67 W/m² | - |
| 1777668537 | 28.33° C | 83% | 1017.9 hPa | 0 mm | - | 98 W/m² | - |
| 1777668233 | 28.89° C | 82% | 1017.7 hPa | 0 mm | - | 100 W/m² | - |
| 1777667930 | 29.44° C | 81% | 1017.7 hPa | 0 mm | - | 122 W/m² | - |
| 1777667627 | 29.44° C | 81% | 1017.7 hPa | 0 mm | - | 292 W/m² | - |
| 1777667324 | 29.44° C | 80% | 1017.5 hPa | 0 mm | - | 116 W/m² | - |
| 1777667021 | 30° C | 78% | 1017.6 hPa | 0 mm | - | 405 W/m² | - |
| 1777666718 | 28.89° C | 80% | 1017.5 hPa | 0 mm | - | 424 W/m² | - |
| 1777666414 | 29.44° C | 80% | 1017.6 hPa | 0 mm | - | 167 W/m² | - |
| 1777666111 | 28.89° C | 82% | 1017.6 hPa | 0 mm | - | 135 W/m² | - |
| 1777665808 | 29.44° C | 80% | 1017.7 hPa | 0 mm | - | 423 W/m² | - |
| 1777665506 | 29.44° C | 79% | 1017.6 hPa | 0 mm | - | 307 W/m² | - |
| 1777665200 | 29.44° C | 80% | 1017.7 hPa | 0 mm | - | 222 W/m² | - |
| 1777664892 | 29.44° C | 80% | 1017.7 hPa | 0 mm | - | 457 W/m² | - |
| 1777664588 | 30° C | 80% | 1017.6 hPa | 0 mm | - | 477 W/m² | - |
| 1777664284 | 30° C | 79% | 1018 hPa | 0 mm | - | 491 W/m² | - |
| 1777663983 | 30° C | 77% | 1018 hPa | 0 mm | - | 498 W/m² | - |
| 1777663680 | 30° C | 79% | 1017.7 hPa | 0 mm | - | 505 W/m² | - |
| 1777663376 | 29.44° C | 80% | 1017.9 hPa | 0 mm | - | 550 W/m² | - |
| 1777663074 | 30° C | 79% | 1017.9 hPa | 0 mm | - | 597 W/m² | - |
| 1777662771 | 30° C | 80% | 1018 hPa | 0 mm | - | 549 W/m² | - |
| 1777662468 | 30° C | 79% | 1018.1 hPa | 0 mm | - | 633 W/m² | - |
* Rain latest hour (hover to see other rain measurements)
** Current wind speed in m/s (hover to see current wind gust speed)